TimeMST,TemperatureF,Dew PointF,Humidity,Sea Level PressureIn,VisibilityMPH,Wind Direction,Wind SpeedMPH,Gust SpeedMPH,PrecipitationIn,Events,Conditions,WindDirDegrees,DateUTC
12:51 AM,33.8,33.8,100,30.18,10.0,WNW,5.8,-,N/A,,Overcast,300,2012-11-05 07:51:00
1:13 AM,33.8,33.8,100,30.17,5.0,NW,6.9,-,N/A,,Overcast,310,2012-11-05 08:13:00
1:56 AM,34.0,33.1,96,30.22,6.0,NNW,3.5,-,N/A,,Overcast,330,2012-11-05 08:56:00
2:56 AM,34.0,32.0,92,30.21,2.0,West,4.6,-,N/A,,Overcast,270,2012-11-05 09:56:00
3:08 AM,33.8,33.8,100,30.16,1.2,West,8.1,-,N/A,,Overcast,260,2012-11-05 10:08:00
3:28 AM,33.8,33.8,100,30.15,3.0,West,4.6,-,N/A,,Overcast,280,2012-11-05 10:28:00
3:40 AM,33.8,33.8,100,30.14,2.0,Calm,Calm,-,N/A,,Overcast,0,2012-11-05 10:40:00
3:56 AM,33.1,32.0,96,30.19,1.2,Calm,Calm,-,N/A,,Overcast,0,2012-11-05 10:56:00
4:56 AM,34.0,33.1,96,30.18,6.0,WSW,6.9,-,N/A,,Overcast,250,2012-11-05 11:56:00
5:56 AM,33.1,32.0,96,30.16,9.0,SW,5.8,-,N/A,,Overcast,220,2012-11-05 12:56:00
6:56 AM,34.0,33.1,96,30.12,5.0,South,9.2,-,N/A,,Overcast,190,2012-11-05 13:56:00
7:17 AM,33.8,33.8,100,30.05,1.8,South,10.4,-,N/A,,Overcast,180,2012-11-05 14:17:00
7:54 AM,35.6,33.8,93,30.04,2.5,South,10.4,-,N/A,,Overcast,180,2012-11-05 14:54:00
7:56 AM,35.1,34.0,96,30.11,3.0,South,11.5,-,N/A,,Overcast,180,2012-11-05 14:56:00
8:56 AM,36.0,35.1,97,30.07,10.0,South,16.1,-,N/A,,Overcast,170,2012-11-05 15:56:00
9:56 AM,39.0,36.0,89,30.01,10.0,South,16.1,-,N/A,,Mostly Cloudy,170,2012-11-05 16:56:00
10:56 AM,42.1,37.0,82,29.97,10.0,South,17.3,-,N/A,,Scattered Clouds,180,2012-11-05 17:56:00
11:56 AM,46.0,37.0,71,29.92,10.0,South,15.0,-,N/A,,Overcast,190,2012-11-05 18:56:00
12:56 PM,48.9,39.0,69,29.87,10.0,South,13.8,-,0.00,,Overcast,190,2012-11-05 19:56:00
1:56 PM,57.0,41.0,55,29.81,10.0,SW,17.3,24.2,0.00,,Overcast,220,2012-11-05 20:56:00
2:56 PM,60.1,43.0,53,29.81,10.0,West,11.5,-,N/A,,Mostly Cloudy,260,2012-11-05 21:56:00
3:56 PM,57.9,42.1,56,29.82,10.0,WNW,15.0,-,N/A,,Clear,290,2012-11-05 22:56:00
4:56 PM,55.0,44.1,67,29.84,10.0,WNW,18.4,-,0.00,,Partly Cloudy,290,2012-11-05 23:56:00
5:56 PM,51.1,41.0,68,29.90,10.0,NNW,32.2,49.5,N/A,,Clear,330,2012-11-06 00:56:00
6:56 PM,44.1,36.0,73,29.96,10.0,NNW,23.0,29.9,N/A,,Clear,330,2012-11-06 01:56:00
7:56 PM,39.9,34.0,79,29.99,10.0,WNW,12.7,-,N/A,,Clear,300,2012-11-06 02:56:00
8:56 PM,39.0,34.0,82,30.01,10.0,WNW,15.0,-,N/A,,Clear,290,2012-11-06 03:56:00
9:56 PM,37.9,33.1,83,30.00,10.0,WNW,15.0,-,N/A,,Clear,290,2012-11-06 04:56:00
10:56 PM,37.9,32.0,79,30.02,10.0,WNW,18.4,26.5,N/A,,Partly Cloudy,290,2012-11-06 05:56:00
11:56 PM,37.9,30.0,73,30.03,10.0,WNW,17.3,-,N/A,,Clear,290,2012-11-06 06:56:00